| time (UTC) | temp F | wind direction | speed MPH | gust MPH | rain 1hr in | rain 24hr in | rain mn in | humidity % | barometer mb |
| 20260901160048 | 76 | 333 | 3.0 | 8.0 | 0.00 | 0.35 | 0.05 | 87 | 1013.0 |
| 20260901154553 | 77 | 280 | 2.0 | 7.0 | 0.00 | 0.39 | 0.05 | 88 | 1012.9 |
| 20260901153044 | 77 | 290 | 2.0 | 10.0 | 0.00 | 0.39 | 0.05 | 88 | 1013.0 |
| 20260901151541 | 76 | 242 | 4.0 | 8.0 | 0.00 | 0.39 | 0.05 | 89 | 1013.0 |
| 20260901150037 | 74 | 156 | 2.0 | 5.0 | 0.00 | 0.39 | 0.05 | 95 | 1013.0 |
| 20260901144533 | 73 | 262 | 3.0 | 6.0 | 0.00 | 0.39 | 0.05 | 96 | 1013.0 |
| 20260901143030 | 72 | 206 | 2.0 | 5.0 | 0.00 | 0.39 | 0.05 | 95 | 1013.2 |
| 20260901141529 | 72 | 238 | 1.0 | 4.0 | 0.00 | 0.39 | 0.05 | 96 | 1013.3 |
| 20260901140027 | 72 | 211 | 2.0 | 4.0 | 0.00 | 0.39 | 0.05 | 96 | 1013.3 |
| 20260901134526 | 71 | 327 | 0.0 | 2.0 | 0.00 | 0.39 | 0.05 | 97 | 1013.3 |
| 20260901133026 | 70 | 159 | 0.0 | 3.0 | 0.00 | 0.39 | 0.05 | 96 | 1013.3 |
| 20260901131523 | 70 | 90 | 1.0 | 4.0 | 0.00 | 0.39 | 0.05 | 96 | 1013.4 |
| 20260901130022 | 71 | 13 | 1.0 | 8.0 | 0.00 | 0.39 | 0.05 | 97 | 1013.5 |
| 20260901124519 | 71 | 187 | 1.0 | 4.0 | 0.01 | 0.39 | 0.05 | 97 | 1013.4 |
| 20260901123016 | 70 | 194 | 2.0 | 5.0 | 0.01 | 0.39 | 0.05 | 97 | 1013.5 |
| 20260901121518 | 70 | 188 | 2.0 | 5.0 | 0.01 | 0.39 | 0.05 | 97 | 1013.2 |
| 20260901120013 | 70 | 211 | 0.0 | 4.0 | 0.01 | 0.39 | 0.05 | 97 | 1013.2 |
| 20260901114513 | 70 | 221 | 2.0 | 6.0 | 0.02 | 0.38 | 0.04 | 97 | 1013.2 |
| 20260901113011 | 70 | 215 | 3.0 | 7.0 | 0.03 | 0.38 | 0.04 | 97 | 1013.3 |
| 20260901111509 | 69 | 215 | 2.0 | 8.0 | 0.03 | 0.38 | 0.04 | 97 | 1013.2 |
| 20260901110008 | 69 | 205 | 3.0 | 7.0 | 0.03 | 0.38 | 0.04 | 97 | 1012.9 |
| 20260901104510 | 69 | 227 | 3.0 | 5.0 | 0.01 | 0.36 | 0.02 | 97 | 1013.1 |
| 20260901103007 | 69 | 197 | 2.0 | 6.0 | 0.00 | 0.35 | 0.01 | 97 | 1013.1 |
| 20260901101507 | 69 | 195 | 2.0 | 4.0 | 0.00 | 0.35 | 0.01 | 97 | 1013.2 |
| 20260901100002 | 69 | 221 | 2.0 | 5.0 | 0.00 | 0.35 | 0.01 | 97 | 1013.3 |
| 20260901094503 | 69 | 230 | 1.0 | 5.0 | 0.00 | 0.35 | 0.01 | 97 | 1013.3 |
| 20260901093101 | 68 | 228 | 2.0 | 4.0 | 0.00 | 0.35 | 0.01 | 97 | 1013.4 |
| 20260901091606 | 68 | 211 | 1.0 | 3.0 | 0.00 | 0.35 | 0.01 | 97 | 1013.4 |
| 20260901090101 | 68 | 213 | 2.0 | 5.0 | 0.00 | 0.35 | 0.01 | 97 | 1013.3 |
| 20260901084556 | 68 | 198 | 2.0 | 5.0 | 0.00 | 0.35 | 0.01 | 97 | 1013.5 |
| 20260901083054 | 68 | 159 | 2.0 | 5.0 | 0.00 | 0.35 | 0.01 | 97 | 1013.8 |
| 20260901081553 | 68 | 210 | 1.0 | 2.0 | 0.00 | 0.35 | 0.01 | 97 | 1014.2 |
| 20260901080153 | 68 | 221 | 0.0 | 3.0 | 0.01 | 0.35 | 0.01 | 97 | 1014.2 |
| 20260901074551 | 68 | 209 | 0.0 | 2.0 | 0.01 | 0.35 | 0.01 | 97 | 1014.2 |
| 20260901073048 | 68 | 221 | 0.0 | 2.0 | 0.01 | 0.35 | 0.01 | 97 | 1014.4 |
| 20260901071552 | 68 | 197 | 1.0 | 6.0 | 0.01 | 0.35 | 0.01 | 97 | 1014.5 |
| 20260901070057 | 68 | 196 | 1.0 | 3.0 | 0.00 | 0.34 | 0.00 | 97 | 1014.6 |
| 20260901064602 | 68 | 209 | 1.0 | 4.0 | 0.00 | 0.34 | 0.00 | 97 | 1014.6 |
| 20260901063046 | 68 | 203 | 1.0 | 2.0 | 0.00 | 0.34 | 0.00 | 97 | 1014.7 |
| 20260901061540 | 68 | 214 | 0.0 | 2.0 | 0.00 | 0.34 | 0.00 | 97 | 1014.7 |
| 20260901060042 | 68 | 209 | 0.0 | 2.0 | 0.00 | 0.34 | 0.00 | 97 | 1014.9 |
| 20260901054536 | 68 | 209 | 0.0 | 3.0 | 0.00 | 0.34 | 0.00 | 97 | 1015.1 |
| 20260901053035 | 68 | 209 | 0.0 | 0.0 | 0.00 | 0.34 | 0.00 | 97 | 1015.2 |
| 20260901051535 | 68 | 209 | 0.0 | 0.0 | 0.00 | 0.34 | 0.00 | 97 | 1015.3 |
| 20260901050034 | 68 | 209 | 1.0 | 3.0 | 0.00 | 0.34 | 0.00 | 97 | 1015.3 |
| 20260901044536 | 67 | 209 | 0.0 | 1.0 | 0.00 | 0.34 | 0.00 | 97 | 1015.3 |
| 20260901043033 | 68 | 209 | 0.0 | 0.0 | 0.00 | 0.34 | 0.00 | 97 | 1015.3 |
| 20260901041532 | 68 | 209 | 0.0 | 1.0 | 0.00 | 0.34 | 0.00 | 97 | 1015.3 |
| 20260901040029 | 68 | 241 | 1.0 | 3.0 | 0.00 | 0.34 | 0.00 | 97 | 1015.4 |
| 20260901034528 | 68 | 230 | 1.0 | 2.0 | 0.00 | 0.34 | 0.34 | 97 | 1015.5 |
| 20260901033037 | 68 | 205 | 0.0 | 3.0 | 0.00 | 0.34 | 0.34 | 96 | 1015.5 |
| 20260901031538 | 68 | 194 | 1.0 | 2.0 | 0.00 | 0.34 | 0.34 | 97 | 1015.5 |
| 20260901030027 | 68 | 206 | 0.0 | 4.0 | 0.00 | 0.34 | 0.34 | 97 | 1015.7 |
| 20260901024527 | 68 | 256 | 2.0 | 3.0 | 0.00 | 0.34 | 0.34 | 97 | 1015.8 |
| 20260901023026 | 68 | 212 | 1.0 | 5.0 | 0.00 | 0.34 | 0.34 | 97 | 1015.8 |
| 20260901021543 | 68 | 190 | 1.0 | 4.0 | 0.00 | 0.34 | 0.34 | 97 | 1015.7 |
| 20260901020025 | 67 | 223 | 1.0 | 4.0 | 0.00 | 0.34 | 0.34 | 97 | 1016.0 |
| 20260901014525 | 68 | 211 | 0.0 | 3.0 | 0.00 | 0.34 | 0.34 | 96 | 1016.3 |
| 20260901013124 | 68 | 197 | 1.0 | 4.0 | 0.00 | 0.34 | 0.34 | 96 | 1016.2 |
| 20260901011523 | 68 | 233 | 0.0 | 4.0 | 0.00 | 0.34 | 0.34 | 96 | 1016.4 |
| 20260901010039 | 68 | 242 | 1.0 | 5.0 | 0.00 | 0.34 | 0.34 | 96 | 1016.3 |
| 20260901004522 | 68 | 215 | 1.0 | 4.0 | 0.00 | 0.34 | 0.34 | 96 | 1016.1 |
| 20260901003027 | 68 | 197 | 2.0 | 4.0 | 0.00 | 0.34 | 0.34 | 96 | 1015.8 |
| 20260901001520 | 68 | 221 | 2.0 | 5.0 | 0.00 | 0.34 | 0.34 | 96 | 1015.7 |
| 20260901000020 | 68 | 233 | 1.0 | 4.0 | 0.00 | 0.34 | 0.34 | 96 | 1015.4 |
| 20260831234519 | 68 | 212 | 1.0 | 4.0 | 0.00 | 0.34 | 0.34 | 96 | 1015.5 |
| 20260831233018 | 68 | 235 | 0.0 | 2.0 | 0.00 | 0.34 | 0.34 | 96 | 1015.5 |
| 20260831231518 | 68 | 179 | 0.0 | 2.0 | 0.00 | 0.34 | 0.34 | 96 | 1015.7 |
| 20260831230016 | 68 | 217 | 1.0 | 2.0 | 0.00 | 0.34 | 0.34 | 96 | 1015.7 |
| 20260831224515 | 68 | 142 | 0.0 | 3.0 | 0.01 | 0.34 | 0.34 | 96 | 1015.7 |
| 20260831223021 | 68 | 179 | 1.0 | 4.0 | 0.01 | 0.34 | 0.34 | 96 | 1016.0 |
| 20260831221515 | 68 | 167 | 2.0 | 5.0 | 0.01 | 0.34 | 0.34 | 95 | 1016.1 |
| 20260831220010 | 68 | 139 | 1.0 | 4.0 | 0.01 | 0.34 | 0.34 | 95 | 1016.2 |
| 20260831214510 | 68 | 179 | 1.0 | 4.0 | 0.00 | 0.33 | 0.33 | 96 | 1016.4 |
| 20260831213008 | 68 | 178 | 2.0 | 4.0 | 0.00 | 0.33 | 0.33 | 96 | 1016.3 |
| 20260831211509 | 68 | 175 | 1.0 | 6.0 | 0.01 | 0.33 | 0.33 | 96 | 1016.4 |
| 20260831210012 | 68 | 189 | 1.0 | 5.0 | 0.01 | 0.33 | 0.33 | 96 | 1016.6 |
| 20260831204508 | 68 | 160 | 2.0 | 4.0 | 0.01 | 0.33 | 0.33 | 96 | 1016.5 |
| 20260831203010 | 68 | 254 | 2.0 | 4.0 | 0.01 | 0.33 | 0.33 | 96 | 1016.8 |
| 20260831201503 | 68 | 227 | 1.0 | 5.0 | 0.00 | 0.32 | 0.32 | 95 | 1016.6 |
| 20260831200005 | 68 | 192 | 1.0 | 3.0 | 0.00 | 0.32 | 0.32 | 95 | 1016.7 |
| 20260831194641 | 68 | 219 | 0.0 | 2.0 | 0.00 | 0.32 | 0.32 | 95 | 1016.9 |
| 20260831193100 | 68 | 218 | 0.0 | 2.0 | 0.00 | 0.32 | 0.32 | 95 | 1017.1 |
| 20260831191601 | 68 | 213 | 1.0 | 7.0 | 0.00 | 0.32 | 0.32 | 95 | 1017.0 |
| 20260831184558 | 67 | 226 | 2.0 | 9.0 | 0.00 | 0.32 | 0.32 | 96 | 1017.1 |
| 20260831183052 | 67 | 177 | 3.0 | 9.0 | 0.02 | 0.32 | 0.32 | 96 | 1017.2 |
| 20260831181552 | 67 | 188 | 4.0 | 10.0 | 0.07 | 0.32 | 0.32 | 96 | 1017.3 |
| 20260831180049 | 67 | 163 | 3.0 | 9.0 | 0.10 | 0.32 | 0.32 | 96 | 1017.5 |
| 20260831174548 | 66 | 190 | 3.0 | 7.0 | 0.14 | 0.32 | 0.32 | 96 | 1017.7 |
| 20260831173043 | 66 | 205 | 2.0 | 6.0 | 0.15 | 0.28 | 0.28 | 96 | 1017.9 |
| 20260831171546 | 65 | 212 | 1.0 | 6.0 | 0.15 | 0.25 | 0.25 | 96 | 1018.2 |
| 20260831170042 | 65 | 222 | 2.0 | 6.0 | 0.17 | 0.21 | 0.21 | 96 | 1018.3 |
| 20260831164541 | 65 | 198 | 2.0 | 5.0 | 0.18 | 0.18 | 0.18 | 95 | 1018.4 |
| 20260831163041 | 65 | 196 | 2.0 | 4.0 | 0.14 | 0.14 | 0.14 | 95 | 1018.6 |
| 20260831161541 | 66 | 207 | 1.0 | 4.0 | 0.10 | 0.10 | 0.10 | 94 | 1018.7 |